This is the latest recevied weather packets stored in our database for station/object HB9TJM-8. If no packets are shown the sender has not sent any weather packets the latest 10 day(s).
| Time | Temp. | Humidity | Pressure | Rain* | Wind** | Luminosity | Snow |
|---|---|---|---|---|---|---|---|
| 1777382587 | 13.89° C | 64% | 1016.2 hPa | 0.25 mm | - | 198 W/m² | - |
| 1777380744 | 13.89° C | 64% | 1016.1 hPa | 0.51 mm | - | 168 W/m² | - |
| 1777379515 | 13.33° C | 70% | 1015.6 hPa | 0.51 mm | - | 265 W/m² | - |
| 1777379208 | 13.33° C | 70% | 1015.7 hPa | 0.51 mm | - | 231 W/m² | - |
| 1777378901 | 12.78° C | 73% | 1015.8 hPa | 0.51 mm | - | 172 W/m² | - |
| 1777378594 | 12.78° C | 70% | 1015.9 hPa | 0.51 mm | - | 157 W/m² | - |
| 1777378286 | 12.78° C | 68% | 1016.2 hPa | 0.25 mm | - | 132 W/m² | - |
| 1777377980 | 12.78° C | 72% | 1016.3 hPa | 0.25 mm | - | 144 W/m² | - |
| 1777377980 | 12.78° C | 72% | 1016.3 hPa | 0.25 mm | - | 144 W/m² | - |
| 1777377365 | 12.22° C | 78% | 1016.6 hPa | 0.25 mm | - | 184 W/m² | - |
| 1777377057 | 11.67° C | 75% | 1015.9 hPa | 0 mm | - | 96 W/m² | - |
| 1777376135 | 12.22° C | 76% | 1016.4 hPa | 0.25 mm | - | 84 W/m² | - |
| 1777375521 | 12.22° C | 72% | 1016.7 hPa | 0 mm | - | 66 W/m² | - |
| 1777374292 | 12.78° C | 69% | 1016.4 hPa | 0 mm | - | 157 W/m² | - |
| 1777373369 | 12.22° C | 64% | 1016.7 hPa | 0 mm | - | 192 W/m² | - |
| 1777372447 | 12.22° C | 58% | 1016.7 hPa | 0 mm | - | 149 W/m² | - |
| 1777372140 | 12.78° C | 61% | 1016.5 hPa | 0 mm | - | 160 W/m² | - |
| 1777371833 | 12.78° C | 58% | 1016.8 hPa | 0 mm | - | 170 W/m² | - |
| 1777371833 | 12.78° C | 58% | 1016.8 hPa | 0 mm | - | 170 W/m² | - |
| 1777371525 | 12.78° C | 57% | 1016.3 hPa | 0 mm | - | 179 W/m² | - |
| 1777371525 | 12.78° C | 57% | 1016.3 hPa | 0 mm | - | 179 W/m² | - |
| 1777371217 | 12.78° C | 57% | 1016.9 hPa | 0 mm | - | 208 W/m² | - |
| 1777371217 | 12.78° C | 57% | 1016.9 hPa | 0 mm | - | 208 W/m² | - |
| 1777370910 | 13.33° C | 57% | 1016.6 hPa | 0 mm | - | 218 W/m² | - |
| 1777370603 | 13.33° C | 57% | 1016.7 hPa | 0 mm | - | 227 W/m² | - |
* Rain latest hour (hover to see other rain measurements)
** Current wind speed in m/s (hover to see current wind gust speed)